Stations météo

Publicité
Greifswalder Oie, Allemagne (10097): Température de l'air & dewpoint: 19.06.2018 21:00:00 - 25.06.2018 21:00:00 (CEST)Greifswalder Oie, Allemagne (10097): Température de l'air 5cm & Température de l'air -5cm: 19.06.2018 21:00:00 - 25.06.2018 21:00:00 (CEST)Greifswalder Oie, Allemagne (10097): Température de l'air -20cm & Température de l'air -100cm: 19.06.2018 21:00:00 - 25.06.2018 21:00:00 (CEST)Greifswalder Oie, Allemagne (10097): water temperature: 19.06.2018 21:00:00 - 25.06.2018 21:00:00 (CEST)Greifswalder Oie, Allemagne (10097): Vitesse du vent & gusts: 19.06.2018 21:00:00 - 25.06.2018 21:00:00 (CEST)Greifswalder Oie, Allemagne (10097): Direction du vent: 19.06.2018 21:00:00 - 25.06.2018 21:00:00 (CEST)Greifswalder Oie, Allemagne (10097): reduced air pressure: 19.06.2018 21:00:00 - 25.06.2018 21:00:00 (CEST)Greifswalder Oie, Allemagne (10097): visibility: 19.06.2018 21:00:00 - 25.06.2018 21:00:00 (CEST)Greifswalder Oie, Allemagne (10097): Ensoleillement: 19.06.2018 21:00:00 - 25.06.2018 21:00:00 (CEST)Greifswalder Oie, Allemagne (10097): Quantités de précipitations: 19.06.2018 21:00:00 - 25.06.2018 21:00:00 (CEST)
Date & Time tt [°C] td [°C] tt 5cm [°C] tt -5cm [°C] tt -20cm [°C] tt -100cm [°C] tw [°C] ff [km/h] ff [knt] fx [km/h] fx [knt] dd ppp [hPa] vv [km] sd [min] rr [mm]
25.06.2018 21:00:00 - - - - - - - - - - - - - - - -
25.06.2018 20:00:00 17,8 14,1 18,6 21,4 20,4 16,1 18,6 31 17 36 19 W 1019,1 11 60 0,0
25.06.2018 19:00:00 18,3 14,4 19,9 21,7 20,4 16,1 18,9 27 15 31 17 W 1019,1 14 42 0,0
25.06.2018 18:00:00 18,0 14,2 18,2 22,2 20,4 16,1 18,8 23 12 32 18 W 1019,3 12 2 0,0
25.06.2018 17:00:00 18,1 13,8 19,7 23,0 20,2 16,0 18,7 30 16 34 19 W 1019,2 12 20 0,0
25.06.2018 16:00:00 17,9 13,6 19,4 23,3 20,0 16,0 18,7 28 15 35 19 W 1019,2 12 22 0,0
25.06.2018 15:00:00 17,9 13,7 20,0 22,9 19,7 16,0 18,9 31 17 36 19 W 1018,8 11 9 0,0
25.06.2018 14:00:00 17,8 14,1 19,2 23,5 19,3 16,0 19,1 29 16 36 19 WNW 1018,7 12 18 0,0
25.06.2018 13:00:00 18,2 14,0 21,3 23,2 18,7 16,0 18,7 31 17 38 20 W 1018,5 5 60 0,0
25.06.2018 12:00:00 17,3 14,0 19,6 21,6 18,3 16,0 18,2 32 18 43 23 W 1018,2 7 60 0,0
25.06.2018 11:00:00 17,0 14,0 19,7 20,1 18,0 16,0 17,7 34 18 41 22 W 1018,0 11 53 0,0
25.06.2018 10:00:00 16,5 13,7 18,8 18,4 17,9 16,0 17,3 29 16 35 19 W 1017,8 7 22 0,0
25.06.2018 09:00:00 15,8 14,2 16,9 17,2 17,9 16,0 17,1 27 15 39 21 W 1017,6 11 0 0,0
25.06.2018 08:00:00 14,5 13,7 15,3 16,8 18,0 16,0 17,1 31 17 39 21 W 1017,3 6 0 0,0
25.06.2018 07:00:00 14,5 13,9 14,8 16,7 18,1 16,0 17,1 29 16 35 19 W 1017,1 4,1 0 0,0
25.06.2018 06:00:00 14,9 13,9 14,8 16,5 18,3 16,0 17,1 29 15 35 19 W 1016,9 9 0 0,0
25.06.2018 05:00:00 14,7 13,7 14,4 16,4 18,6 16,0 17,2 28 15 35 19 W 1016,7 7 0 0,0
25.06.2018 04:00:00 14,8 13,6 14,1 16,6 18,9 16,0 17,3 30 16 34 19 W 1016,7 10 0 0,0
25.06.2018 03:00:00 15,1 13,3 14,2 16,9 19,2 16,0 17,4 26 14 31 17 W 1016,9 16 0 0,0
25.06.2018 02:00:00 15,7 13,1 14,8 17,3 19,5 16,0 17,4 24 13 29 16 W 1017,0 19 0 0,0
25.06.2018 01:00:00 15,5 12,6 14,8 17,7 19,9 16,0 17,5 24 13 29 15 W 1017,1 20 0 0,0
25.06.2018 00:00:00 15,4 12,1 14,9 18,3 20,3 16,0 17,7 24 13 28 15 WNW 1017,3 25 0 0,0
24.06.2018 23:00:00 15,1 11,5 14,8 19,2 20,7 16,0 17,8 23 13 27 15 WNW 1016,9 24 0 0,0
24.06.2018 22:00:00 15,0 10,9 14,7 20,4 21,1 16,0 17,9 19 10 24 13 NW 1016,9 25 2 0,0
24.06.2018 21:00:00 16,6 10,9 16,4 22,4 21,2 16,0 18,0 21 11 26 14 WNW 1016,5 33 60 0,0
24.06.2018 20:00:00 17,1 10,9 20,9 24,7 21,2 16,0 17,9 3 2 7 4 W 1016,6 26 60 0,0
24.06.2018 19:00:00 17,0 10,6 21,2 26,1 20,9 16,0 17,8 3 2 8 4 NNW 1016,6 21 60 0,0
24.06.2018 18:00:00 17,5 10,7 21,9 27,0 20,4 16,0 17,6 5 3 11 6 N 1016,4 22 60 0,0
24.06.2018 17:00:00 17,7 11,0 22,9 27,1 19,8 16,1 17,5 8 4 16 8 N 1016,6 18 60 0,0
24.06.2018 16:00:00 18,2 11,8 23,5 25,8 19,2 16,1 17,5 11 6 16 9 N 1016,8 21 54 0,0
24.06.2018 15:00:00 17,5 11,6 21,1 23,8 18,7 16,1 17,3 8 4 16 9 NNE 1016,6 25 11 0,0
24.06.2018 14:00:00 17,4 10,8 21,4 23,5 18,1 16,1 17,9 11 6 30 16 NNW 1016,7 21 42 0,0
24.06.2018 13:00:00 16,4 11,1 19,1 22,1 17,6 16,1 17,5 23 12 30 16 W 1016,6 13 60 0,0
24.06.2018 12:00:00 15,7 11,3 18,2 19,7 17,2 16,1 16,8 26 14 31 17 W 1016,4 8 41 0,0
24.06.2018 11:00:00 15,2 11,8 16,0 18,1 17,0 16,1 16,6 27 15 34 18 W 1016,3 20 1 0,0
24.06.2018 10:00:00 17,3 11,1 19,8 18,5 16,7 16,1 16,7 19 11 29 16 NNW 1016,2 22 37 0,0
24.06.2018 09:00:00 16,2 11,0 18,1 16,6 16,6 16,1 16,7 23 13 33 18 NNW 1015,9 21 12 0,0
24.06.2018 08:00:00 16,2 11,4 17,7 15,8 16,6 16,1 16,6 21 12 32 17 NW 1015,7 19 47 0,0
24.06.2018 07:00:00 14,8 11,1 15,4 14,9 16,8 16,1 16,6 28 15 36 20 NW 1015,4 27 31 0,0
24.06.2018 06:00:00 14,3 11,3 14,6 14,9 16,9 16,1 16,6 30 16 37 20 NW 1015,4 17 5 0,0
24.06.2018 05:00:00 13,8 11,2 13,3 15,0 17,1 16,1 16,6 32 17 38 21 NW 1015,4 23 0 0,0
24.06.2018 04:00:00 14,1 11,2 13,7 15,3 17,3 16,1 16,7 34 18 42 23 NW 1015,5 29 0 0,0
24.06.2018 03:00:00 14,6 11,1 14,2 15,7 17,5 16,2 16,7 36 19 44 24 WNW 1015,6 22 0 0,0
24.06.2018 02:00:00 15,3 11,2 15,1 16,0 17,7 16,2 16,8 37 20 47 25 WNW 1015,8 24 0 0,0
24.06.2018 01:00:00 15,3 11,4 14,9 16,3 18,0 16,2 16,9 36 19 45 25 WNW 1016,1 26 0 0,0
24.06.2018 00:00:00 15,4 10,9 15,2 16,7 18,2 16,2 16,9 34 18 44 24 WNW 1016,2 27 0 0,0
23.06.2018 23:00:00 15,7 11,0 15,4 17,1 18,4 16,2 17,0 36 20 42 23 WNW 1016,1 27 0 0,0
23.06.2018 22:00:00 15,6 10,3 15,2 17,7 18,7 16,2 17,0 35 19 42 23 WNW 1016,1 28 3 0,0
23.06.2018 21:00:00 15,9 10,5 15,7 18,8 18,8 16,2 17,1 36 19 45 24 WNW 1015,8 25 38 0,0
23.06.2018 20:00:00 17,0 10,7 17,9 20,1 18,8 16,3 17,2 36 19 44 24 WNW 1015,8 16 55 0,0
23.06.2018 19:00:00 17,6 8,9 18,6 21,0 18,7 16,3 17,2 36 19 46 25 WNW 1015,8 9 52 0,0
23.06.2018 18:00:00 17,6 9,2 19,1 21,8 18,5 16,3 17,3 37 20 49 26 WNW 1015,7 7 59 0,0
23.06.2018 17:00:00 17,2 9,8 19,3 22,0 18,1 16,3 17,3 39 21 52 28 WNW 1015,9 6 60 0,0
23.06.2018 16:00:00 17,4 10,3 19,5 21,6 17,6 16,3 17,2 42 23 52 28 WNW 1016,0 4,8 59 0,0
23.06.2018 15:00:00 17,0 10,5 18,8 20,7 17,2 16,3 17,1 43 23 53 29 WNW 1016,0 3,6 53 0,0
23.06.2018 14:00:00 16,3 10,3 17,6 19,1 16,9 16,3 17,0 37 20 50 27 WNW 1016,1 7 25 0,0
23.06.2018 13:00:00 15,6 10,3 16,7 18,5 16,6 16,4 16,9 39 21 49 26 WNW 1015,9 11 14 0,0
23.06.2018 12:00:00 16,0 10,0 17,6 18,6 16,2 16,4 16,9 42 23 55 30 WNW 1015,7 11 56 0,0
23.06.2018 11:00:00 15,1 9,7 16,6 17,1 15,9 16,4 16,8 37 20 49 26 WNW 1015,4 7 46 0,0
23.06.2018 10:00:00 14,6 9,2 15,9 15,5 15,7 16,4 16,6 39 21 50 27 WNW 1015,2 10 26 0,0
23.06.2018 09:00:00 13,6 9,2 14,2 14,3 15,8 16,4 16,5 33 18 50 27 WNW 1015,4 11 1 0,0
23.06.2018 08:00:00 13,1 8,8 13,3 13,8 15,8 16,4 16,5 37 20 51 27 WNW 1014,9 15 0 0,0
23.06.2018 07:00:00 12,8 8,2 12,9 13,6 16,0 16,4 16,6 40 21 54 29 WNW 1014,9 19 0 0,0
23.06.2018 06:00:00 12,8 8,0 12,8 13,5 16,2 16,5 16,6 48 26 61 33 WNW 1014,7 18 0 0,0
23.06.2018 05:00:00 13,0 8,5 12,9 13,6 16,4 16,5 16,7 51 27 63 34 W 1014,3 18 0 0,0
23.06.2018 04:00:00 13,3 8,4 13,1 13,9 16,6 16,5 16,8 54 29 63 34 WNW 1014,0 18 0 0,0
23.06.2018 03:00:00 13,2 9,4 11,5 14,3 16,8 16,5 16,9 53 28 64 34 W 1014,0 5 0 0,0
23.06.2018 02:00:00 14,1 9,4 13,9 14,9 17,0 16,5 17,0 46 25 61 33 W 1014,1 19 0 0,0
23.06.2018 01:00:00 14,2 9,6 14,1 15,2 17,2 16,5 17,1 48 26 63 34 W 1014,4 24 0 0,0
23.06.2018 00:00:00 14,8 10,5 14,6 15,5 17,4 16,6 17,2 49 27 62 34 W 1014,4 19 0 0,0
22.06.2018 23:00:00 14,9 10,1 14,7 15,7 17,6 16,6 17,4 51 28 62 33 W 1014,2 20 0 0,0
22.06.2018 22:00:00 15,0 9,9 14,7 16,1 17,9 16,6 17,5 46 25 61 33 W 1014,3 21 0 0,0
22.06.2018 21:00:00 15,3 10,3 15,0 16,8 18,1 16,6 17,5 48 26 66 36 W 1014,5 22 1 0,0
22.06.2018 20:00:00 15,5 8,5 15,6 18,2 18,2 16,6 17,6 51 28 67 36 W 1014,7 12 46 0,0
22.06.2018 19:00:00 16,4 9,4 17,4 19,5 18,1 16,7 17,8 53 29 63 34 W 1014,5 8 52 0,0
22.06.2018 18:00:00 17,3 7,8 18,5 20,2 17,9 16,7 18,3 44 24 53 28 W 1014,4 6 55 0,0
22.06.2018 17:00:00 17,4 9,3 19,6 20,8 17,5 16,7 17,6 39 21 49 26 W 1014,5 6 55 0,0
22.06.2018 16:00:00 17,5 9,5 19,7 20,7 17,0 16,7 17,6 37 20 44 24 WNW 1014,3 20 57 0,0
22.06.2018 15:00:00 16,7 8,5 19,3 19,6 16,5 16,7 17,4 35 19 45 25 W 1014,1 7 60 0,0
22.06.2018 14:00:00 16,4 8,7 18,5 18,0 16,1 16,7 17,2 35 19 44 24 W 1013,8 6 59 0,0
22.06.2018 13:00:00 15,9 9,0 17,2 16,6 15,8 16,8 17,0 37 20 48 26 WNW 1013,6 9 59 0,0
22.06.2018 12:00:00 15,3 8,8 16,3 15,2 15,6 16,8 16,9 43 23 54 29 WNW 1013,3 8 28 0,0
22.06.2018 11:00:00 14,4 9,1 15,2 14,6 15,5 16,8 16,7 44 24 54 29 W 1012,7 15 10 0,1
22.06.2018 10:00:00 13,6 9,7 14,7 14,3 15,4 16,8 16,6 44 24 58 31 W 1012,1 5 25 0,0
22.06.2018 09:00:00 12,5 10,0 13,2 13,7 15,4 16,8 16,5 49 26 61 33 WSW 1011,6 7 37 0,0
22.06.2018 08:00:00 12,0 9,7 12,7 13,0 15,4 16,8 16,4 51 27 63 34 WSW 1010,8 9 54 0,0
22.06.2018 07:00:00 11,5 9,5 11,5 12,5 15,5 16,8 16,4 52 28 64 35 WSW 1010,3 9 19 0,0
22.06.2018 06:00:00 11,4 9,9 11,0 12,3 15,7 16,8 16,5 47 26 70 38 WSW 1010,6 20 11 0,0
22.06.2018 05:00:00 11,4 9,6 10,4 12,4 15,9 16,8 16,5 56 30 72 39 WSW 1010,3 17 0 0,1
22.06.2018 04:00:00 11,7 9,7 10,6 12,5 16,1 16,8 16,6 56 30 74 40 WSW 1010,2 20 0 0,3
22.06.2018 03:00:00 12,1 9,0 11,5 12,5 16,3 16,8 16,8 54 29 71 38 WSW 1010,3 19 0 0,0
22.06.2018 02:00:00 12,4 9,4 11,7 12,7 16,6 16,8 17,0 55 30 66 36 WSW 1010,3 20 0 0,0
22.06.2018 01:00:00 13,0 8,7 12,2 12,9 16,8 16,8 17,1 51 27 65 35 W 1010,5 20 0 0,0
22.06.2018 00:00:00 13,0 9,2 12,2 13,2 17,1 16,8 17,5 51 28 67 36 W 1010,6 21 0 0,0
21.06.2018 23:00:00 13,5 10,4 12,7 13,5 17,4 16,8 17,4 53 29 69 38 W 1010,2 21 0 0,0
21.06.2018 22:00:00 13,3 10,0 12,6 13,7 17,7 16,8 17,9 55 30 73 40 W 1010,1 22 4 0,0
21.06.2018 21:00:00 13,2 9,9 12,6 14,1 18,0 16,8 18,2 58 31 73 39 W 1009,7 24 50 0,0
21.06.2018 20:00:00 13,2 9,9 12,7 14,4 18,3 16,8 18,4 55 30 73 39 W 1009,8 19 19 0,4
21.06.2018 19:00:00 12,1 8,5 11,2 14,8 18,6 16,8 18,3 59 32 74 40 WNW 1009,3 13 0 1,7
21.06.2018 18:00:00 13,4 10,0 13,1 15,6 18,9 16,8 18,6 50 27 66 36 W 1007,9 21 5 0,1
21.06.2018 17:00:00 13,2 10,7 12,7 16,1 19,1 16,8 18,5 53 29 86 46 W 1007,7 10 0 0,8
21.06.2018 16:00:00 14,3 11,5 14,0 17,1 19,4 16,8 18,9 34 19 50 27 WSW 1007,4 14 1 0,0
21.06.2018 15:00:00 14,3 10,1 14,4 16,3 19,7 16,8 18,9 40 21 52 28 W 1007,4 12 0 0,1
21.06.2018 14:00:00 13,5 11,7 12,7 16,7 20,1 16,8 19,0 37 20 49 27 W 1008,0 9 0 1,4
21.06.2018 13:00:00 13,1 11,9 12,9 17,3 20,4 16,8 19,1 26 14 49 26 WNW 1007,7 7 0 1,4
21.06.2018 12:00:00 12,8 12,0 12,8 18,8 20,7 16,8 19,2 39 21 55 30 NW 1008,0 4,9 0 2,0
21.06.2018 11:00:00 14,6 13,7 14,5 20,7 20,7 16,8 19,4 48 26 60 33 NW 1007,5 12 0 1,0
21.06.2018 10:00:00 19,7 15,5 21,8 22,4 20,5 16,8 19,7 8 5 22 12 SSW 1006,4 13 14 0,0
21.06.2018 09:00:00 19,3 15,4 21,5 21,2 20,4 16,8 19,4 19 10 28 15 SW 1007,8 12 44 0,0
21.06.2018 08:00:00 18,8 15,5 21,2 20,0 20,5 16,8 19,3 22 12 30 16 SW 1009,0 7 59 0,0
21.06.2018 07:00:00 18,4 15,7 19,2 19,4 20,7 16,7 19,4 24 13 33 18 WSW 1009,5 8 53 0,0
21.06.2018 06:00:00 17,8 16,2 17,3 19,3 20,9 16,7 19,6 17 9 22 12 SW 1010,1 6 0 0,0
21.06.2018 05:00:00 17,6 15,9 16,2 19,6 21,1 16,7 19,8 16 8 21 11 SSW 1010,6 6 0 0,0
21.06.2018 04:00:00 18,7 16,4 17,3 19,9 21,4 16,7 19,9 16 9 21 11 WSW 1011,4 9 0 0,0
21.06.2018 03:00:00 18,7 16,3 17,6 20,4 21,6 16,7 19,7 16 9 26 14 W 1012,2 11 0 0,0
21.06.2018 02:00:00 19,1 16,4 18,5 20,8 21,9 16,7 19,7 19 10 24 13 W 1012,8 11 0 0,0
21.06.2018 01:00:00 20,1 16,5 19,1 21,2 22,1 16,7 20,7 22 12 30 16 W 1013,3 11 0 0,0
21.06.2018 00:00:00 19,9 15,8 18,6 21,7 22,4 16,7 21,1 22 12 28 15 SSW 1013,4 13 0 0,0
20.06.2018 23:00:00 20,4 15,6 19,0 22,4 22,7 16,7 21,5 24 13 27 14 SSW 1014,0 15 0 0,0
20.06.2018 22:00:00 21,3 15,7 20,0 23,4 22,9 16,7 21,7 23 13 25 14 SSW 1014,4 18 7 0,0
20.06.2018 21:00:00 21,5 16,7 20,6 24,8 23,0 16,7 21,8 17 9 26 14 SW 1014,6 13 60 0,0
20.06.2018 20:00:00 22,3 16,7 24,4 26,2 23,0 16,7 21,8 18 10 29 16 SW 1015,1 19 57 0,0
20.06.2018 19:00:00 23,2 16,5 25,9 26,8 22,8 16,7 22,3 20 11 36 20 WSW 1015,9 10 43 0,0
20.06.2018 18:00:00 23,4 15,9 26,0 27,5 22,6 16,7 22,4 27 15 41 22 WSW 1016,6 7 59 0,0
20.06.2018 17:00:00 23,2 16,4 26,1 27,1 22,3 16,7 22,3 29 16 40 21 SW 1017,1 15 44 0,0
20.06.2018 16:00:00 22,6 15,6 24,3 26,7 22,1 16,7 21,9 29 16 42 23 SW 1017,7 11 16 0,0
20.06.2018 15:00:00 22,3 15,3 24,7 27,1 21,6 16,7 21,7 27 15 35 19 SW 1018,3 18 19 0,0
20.06.2018 14:00:00 22,2 15,7 24,7 27,4 21,0 16,7 20,9 21 11 28 15 WSW 1019,0 14 44 0,0
20.06.2018 13:00:00 22,7 15,3 26,7 26,5 20,3 16,7 20,5 19 10 31 17 WSW 1020,0 11 57 0,0
20.06.2018 12:00:00 22,2 14,4 27,0 24,4 19,8 16,7 19,9 16 9 25 14 WSW 1020,7 9 49 0,0
20.06.2018 11:00:00 20,3 12,4 24,7 22,2 19,4 16,7 19,3 19 10 23 12 SW 1021,2 9 46 0,0
20.06.2018 10:00:00 17,8 10,4 21,8 20,6 19,2 16,7 18,9 14 7 26 14 SW 1021,6 10 50 0,0
20.06.2018 09:00:00 16,7 11,8 19,9 19,0 19,1 16,7 18,8 19 10 28 15 WSW 1021,7 8 60 0,0
20.06.2018 08:00:00 15,9 12,1 18,5 17,8 19,2 16,7 18,7 20 11 30 16 W 1021,7 7 54 0,0
20.06.2018 07:00:00 15,4 11,7 16,1 17,5 19,4 16,7 18,8 24 13 37 20 W 1021,7 11 32 0,0
20.06.2018 06:00:00 15,6 11,9 15,7 17,5 19,6 16,7 18,8 29 16 40 21 WNW 1021,5 7 42 0,0
20.06.2018 05:00:00 15,6 11,4 15,0 17,6 19,8 16,7 18,8 33 18 42 23 W 1021,4 14 0 0,0
20.06.2018 04:00:00 15,5 11,3 15,1 17,9 20,1 16,7 19,0 33 18 43 23 WNW 1021,2 19 0 0,0
20.06.2018 03:00:00 16,1 11,4 15,5 18,3 20,3 16,7 19,1 34 18 41 22 W 1021,2 22 0 0,0
20.06.2018 02:00:00 16,2 11,9 15,5 18,6 20,6 16,7 19,2 29 16 41 22 WNW 1021,3 22 0 0,0
20.06.2018 01:00:00 16,6 11,3 16,0 19,1 20,9 16,7 19,3 36 19 45 24 WNW 1021,3 24 0 0,0
20.06.2018 00:00:00 17,1 11,6 16,6 19,6 21,2 16,7 19,3 36 20 45 24 WNW 1021,1 25 0 0,0
19.06.2018 23:00:00 17,4 12,0 16,9 20,3 21,5 16,7 19,5 33 18 41 22 WNW 1020,9 26 0 0,0
19.06.2018 22:00:00 18,1 12,6 17,6 21,1 21,7 16,7 19,5 33 18 47 25 W 1020,6 30 27 0,0
19.06.2018 21:00:00 18,8 12,6 18,4 22,3 21,9 16,7 19,6 40 22 45 25 WNW 1019,9 30 60 0,0

tt = Température de l'air
td = dewpoint
tt 5cm = Température de l'air 5cm
tt -5cm = Température de l'air -5cm
tt -20cm = Température de l'air -20cm
tt -100cm = Température de l'air -100cm
tw = water temperature
ff = Vitesse du vent
fx = gusts
dd = Direction du vent
ppp = reduced air pressure
vv = visibility
sd = Ensoleillement
rr = Quantités de précipitations

stations d'obs. à proximité